Location: Newark
(45.2500°N, 7.5833°E)
Time: 01:07:26
(UTC+00:00)

Vanguard 3 - Pass Details

Date: 27 January 2020
Orbit: 508 x 3263 km, 33.3° (Epoch: 26 February)

Event Time Altitude Azimuth Distance (km) Brightness Sun altitude
Rises 15:32:37 0° 223° (SW) 6,586 13.9 7.6°
Reaches altitude 10° 15:37:03 10° 216° (SW) 5,822 13.3 7.0°
Maximum altitude 15:54:06 42° 154° (SSE) 4,111 10.9 4.5°
Drops below altitude 10° 16:10:28 10° 92° (E) 5,627 10.9 2.0°
Sets 16:14:37 0° 86° (E) 6,360 11.1 1.4°
